Location: Hobi?a Gr?di?te
(45.4833°N, 22.7833°E)
Time: 05:23:09
(UTC+00:00)

NOSS 2-1 (D) - Pass Details

Date: 28 January 2023
Orbit: 416 x 1760 km, 63.3° (Epoch: 27 March)

Event Time Altitude Azimuth Distance (km) Brightness Sun altitude
Rises 17:08:32 0° 320° (NW) 2,745 7.3 -17.4°
Reaches altitude 10° 17:10:28 10° 320° (NW) 1,970 6.6 -17.8°
Maximum altitude 17:14:53 82° 233° (SW) 769 4.0 -18.5°
Drops below altitude 10° 17:21:08 10° 147° (SSE) 2,754 6.6 -19.6°
Sets 17:24:13 0° 147° (SSE) 3,938 7.4 -20.1°
